| time (UTC) | temp F | wind direction | speed knots | gust knots | rain 1hr in | rain 24hr in | rain mn in | humidity % | barometer mb |
| 20260502151047 | 57 | 254 | 6.1 | 9.6 | 0.00 | 0.00 | 0.00 | 44 | 937.5 |
| 20260502123021 | 45 | 225 | 5.2 | 8.7 | 0.00 | 0.00 | 0.00 | 55 | 939.4 |
| 20260502122045 | 45 | 247 | 7.0 | 12.2 | 0.00 | 0.00 | 0.00 | 55 | 939.5 |
| 20260502121118 | 46 | 209 | 7.8 | 15.6 | 0.00 | 0.00 | 0.00 | 54 | 939.2 |
| 20260502115023 | 46 | 216 | 7.8 | 12.2 | 0.00 | 0.00 | 0.00 | 54 | 939.1 |
| 20260502114049 | 45 | 228 | 7.0 | 12.2 | 0.00 | 0.00 | 0.00 | 54 | 939.3 |
| 20260502113100 | 44 | 221 | 7.0 | 15.6 | 0.00 | 0.00 | 0.00 | 55 | 939.6 |
| 20260502112033 | 44 | 233 | 6.1 | 10.4 | 0.00 | 0.00 | 0.00 | 56 | 939.6 |
| 20260502111025 | 43 | 218 | 4.3 | 9.6 | 0.00 | 0.00 | 0.00 | 57 | 939.8 |
| 20260502110018 | 44 | 238 | 4.3 | 7.0 | 0.00 | 0.00 | 0.00 | 57 | 940.1 |
| 20260502105042 | 43 | 256 | 3.5 | 4.3 | 0.00 | 0.00 | 0.00 | 58 | 940.1 |
| 20260502104033 | 43 | 242 | 4.3 | 8.7 | 0.00 | 0.00 | 0.00 | 58 | 940.0 |
| 20260502103047 | 43 | 235 | 6.1 | 10.4 | 0.00 | 0.00 | 0.00 | 58 | 940.0 |
| 20260502102018 | 44 | 238 | 7.8 | 13.9 | 0.00 | 0.00 | 0.00 | 56 | 939.9 |
| 20260502101103 | 44 | 228 | 7.8 | 13.9 | 0.00 | 0.00 | 0.00 | 56 | 939.9 |
| 20260502091030 | 45 | 215 | 7.0 | 15.6 | 0.00 | 0.00 | 0.00 | 55 | 940.4 |
| 20260502071035 | 46 | 217 | 7.8 | 13.0 | 0.00 | 0.00 | 0.00 | 52 | 941.5 |
| 20260502070028 | 47 | 224 | 6.1 | 10.4 | 0.00 | 0.00 | 0.00 | 51 | 941.6 |
| 20260502065019 | 47 | 221 | 7.0 | 12.2 | 0.00 | 0.00 | 0.00 | 50 | 941.7 |
| 20260502064045 | 47 | 204 | 5.2 | 12.2 | 0.00 | 0.00 | 0.00 | 51 | 941.7 |
| 20260502063036 | 48 | 223 | 6.1 | 12.2 | 0.00 | 0.00 | 0.00 | 49 | 941.6 |
| 20260502062030 | 49 | 219 | 7.0 | 13.9 | 0.00 | 0.00 | 0.00 | 48 | 941.8 |
| 20260502061021 | 48 | 231 | 7.8 | 13.0 | 0.00 | 0.00 | 0.00 | 48 | 941.9 |
| 20260502060106 | 48 | 234 | 7.8 | 13.9 | 0.00 | 0.00 | 0.00 | 49 | 941.9 |
| 20260502055038 | 48 | 221 | 7.0 | 13.0 | 0.00 | 0.00 | 0.00 | 49 | 942.0 |
| 20260502054031 | 48 | 206 | 6.1 | 13.9 | 0.00 | 0.00 | 0.00 | 48 | 942.0 |
| 20260502053023 | 48 | 217 | 5.2 | 10.4 | 0.00 | 0.00 | 0.00 | 50 | 942.0 |
| 20260502052048 | 47 | 211 | 6.1 | 10.4 | 0.00 | 0.00 | 0.00 | 51 | 942.1 |
| 20260502051039 | 47 | 207 | 6.1 | 9.6 | 0.00 | 0.00 | 0.00 | 51 | 942.2 |
| 20260502050033 | 47 | 195 | 3.5 | 7.0 | 0.00 | 0.00 | 0.00 | 54 | 942.1 |
| 20260502045024 | 46 | 179 | 2.6 | 6.1 | 0.00 | 0.00 | 0.00 | 54 | 942.2 |
| 20260502044017 | 46 | 194 | 3.5 | 8.7 | 0.00 | 0.00 | 0.00 | 52 | 942.2 |
| 20260502043041 | 47 | 191 | 2.6 | 4.3 | 0.00 | 0.00 | 0.00 | 52 | 942.3 |
| 20260502042034 | 45 | 166 | 2.6 | 3.5 | 0.00 | 0.00 | 0.00 | 56 | 942.4 |
| 20260502041048 | 46 | 158 | 1.7 | 3.5 | 0.00 | 0.00 | 0.00 | 54 | 942.5 |
| 20260502040039 | 47 | 161 | 1.7 | 3.5 | 0.00 | 0.00 | 0.00 | 53 | 942.5 |
| 20260502035043 | 49 | 166 | 1.7 | 3.5 | 0.00 | 0.00 | 0.00 | 48 | 942.6 |
| 20260502034036 | 48 | 171 | 1.7 | 4.3 | 0.00 | 0.00 | 0.00 | 48 | 942.6 |
| 20260502033028 | 49 | 174 | 1.7 | 3.5 | 0.00 | 0.00 | 0.00 | 48 | 942.6 |
| 20260502032041 | 49 | 136 | 0.9 | 2.6 | 0.00 | 0.00 | 0.00 | 49 | 942.5 |
| 20260502031044 | 50 | 155 | 1.7 | 3.5 | 0.00 | 0.00 | 0.00 | 48 | 942.4 |
| 20260502030038 | 49 | 164 | 1.7 | 3.5 | 0.00 | 0.00 | 0.00 | 51 | 942.4 |
| 20260502025029 | 50 | 156 | 0.0 | 0.9 | 0.00 | 0.00 | 0.00 | 52 | 942.4 |
| 20260502024023 | 51 | 160 | 0.9 | 2.6 | 0.00 | 0.00 | 0.00 | 45 | 942.4 |
| 20260502023106 | 50 | 142 | 1.7 | 2.6 | 0.00 | 0.00 | 0.00 | 46 | 942.4 |
| 20260502022059 | 51 | 156 | 0.0 | 2.6 | 0.00 | 0.00 | 0.00 | 46 | 942.3 |
| 20260502021031 | 53 | 157 | 0.9 | 2.6 | 0.00 | 0.00 | 0.00 | 44 | 942.3 |
| 20260502020024 | 55 | 154 | 0.0 | 2.6 | 0.00 | 0.00 | 0.00 | 41 | 942.3 |
| 20260502015016 | 56 | 155 | 0.0 | 0.9 | 0.00 | 0.00 | 0.00 | 38 | 942.4 |
| 20260502014041 | 57 | 169 | 0.9 | 2.6 | 0.00 | 0.00 | 0.00 | 36 | 942.4 |
| 20260502013033 | 60 | 164 | 0.9 | 2.6 | 0.00 | 0.00 | 0.00 | 36 | 942.5 |
| 20260502012026 | 61 | 164 | 0.9 | 2.6 | 0.00 | 0.00 | 0.00 | 32 | 942.5 |
| 20260502011037 | 62 | 159 | 0.9 | 0.9 | 0.00 | 0.00 | 0.00 | 30 | 942.4 |
| 20260502010042 | 62 | 158 | 0.0 | 0.9 | 0.00 | 0.00 | 0.00 | 30 | 942.4 |
| 20260502005054 | 63 | 165 | 0.9 | 0.9 | 0.00 | 0.00 | 0.00 | 30 | 942.5 |
| 20260502004027 | 62 | 172 | 1.7 | 3.5 | 0.00 | 0.00 | 0.00 | 30 | 942.4 |
| 20260502003019 | 61 | 228 | 4.3 | 6.1 | 0.00 | 0.00 | 0.00 | 36 | 942.5 |
| 20260502002104 | 63 | 31 | 1.7 | 7.0 | 0.00 | 0.00 | 0.00 | 29 | 942.6 |
| 20260502001036 | 63 | 203 | 2.6 | 12.2 | 0.00 | 0.00 | 0.00 | 29 | 942.7 |
| 20260502000029 | 62 | 238 | 3.5 | 4.3 | 0.00 | 0.00 | 0.00 | 28 | 942.7 |
| 20260501235020 | 62 | 75 | 3.5 | 7.0 | 0.00 | 0.00 | 0.00 | 28 | 942.7 |
| 20260501234046 | 63 | 323 | 4.3 | 12.2 | 0.00 | 0.00 | 0.00 | 30 | 942.7 |
| 20260501233058 | 63 | 157 | 3.5 | 6.1 | 0.00 | 0.00 | 0.00 | 28 | 942.8 |
| 20260501232031 | 63 | 149 | 1.7 | 3.5 | 0.00 | 0.00 | 0.00 | 28 | 942.7 |
| 20260501231022 | 64 | 155 | 0.9 | 2.6 | 0.00 | 0.00 | 0.00 | 30 | 942.8 |
| 20260501230048 | 62 | 45 | 4.3 | 8.7 | 0.00 | 0.00 | 0.00 | 31 | 942.7 |
| 20260501225039 | 62 | 115 | 3.5 | 8.7 | 0.00 | 0.00 | 0.00 | 32 | 942.7 |
| 20260501224033 | 62 | 109 | 3.5 | 10.4 | 0.00 | 0.00 | 0.00 | 34 | 942.7 |
| 20260501223044 | 63 | 122 | 2.6 | 6.1 | 0.00 | 0.00 | 0.00 | 32 | 942.7 |
| 20260501222017 | 61 | 122 | 1.7 | 3.5 | 0.00 | 0.00 | 0.00 | 33 | 942.9 |
| 20260501221041 | 62 | 80 | 1.7 | 4.3 | 0.00 | 0.00 | 0.00 | 31 | 942.9 |
| 20260501220034 | 64 | 127 | 2.6 | 4.3 | 0.00 | 0.00 | 0.00 | 30 | 942.9 |
| 20260501215026 | 63 | 172 | 2.6 | 4.3 | 0.00 | 0.00 | 0.00 | 32 | 943.1 |
| 20260501214019 | 62 | 241 | 3.5 | 7.0 | 0.00 | 0.00 | 0.00 | 32 | 943.0 |
| 20260501213042 | 61 | 84 | 4.3 | 8.7 | 0.00 | 0.00 | 0.00 | 32 | 943.1 |
| 20260501212036 | 60 | 66 | 4.3 | 9.6 | 0.00 | 0.00 | 0.00 | 33 | 943.2 |
| 20260501211027 | 59 | 92 | 3.5 | 8.7 | 0.00 | 0.00 | 0.00 | 33 | 943.2 |
| 20260501210021 | 59 | 103 | 2.6 | 7.0 | 0.00 | 0.00 | 0.00 | 33 | 943.4 |
| 20260501205046 | 60 | 71 | 3.5 | 8.7 | 0.00 | 0.00 | 0.00 | 33 | 943.5 |
| 20260501204037 | 59 | 82 | 3.5 | 7.0 | 0.00 | 0.00 | 0.00 | 35 | 943.5 |
| 20260501203029 | 60 | 355 | 3.5 | 7.0 | 0.00 | 0.00 | 0.00 | 34 | 943.6 |
| 20260501202022 | 60 | 24 | 6.1 | 10.4 | 0.00 | 0.00 | 0.00 | 33 | 943.6 |
| 20260501201046 | 60 | 110 | 1.7 | 4.3 | 0.00 | 0.00 | 0.00 | 34 | 943.6 |
| 20260501200039 | 59 | 71 | 4.3 | 10.4 | 0.00 | 0.00 | 0.00 | 34 | 943.8 |
| 20260501195030 | 60 | 13 | 7.0 | 10.4 | 0.00 | 0.00 | 0.00 | 34 | 943.7 |
| 20260501194024 | 61 | 146 | 1.7 | 3.5 | 0.00 | 0.00 | 0.00 | 34 | 943.6 |
| 20260501193047 | 59 | 106 | 5.2 | 13.0 | 0.00 | 0.00 | 0.00 | 34 | 943.8 |
| 20260501192041 | 60 | 45 | 4.3 | 13.0 | 0.00 | 0.00 | 0.00 | 35 | 943.8 |
| 20260501191112 | 58 | 179 | 1.7 | 6.1 | 0.00 | 0.00 | 0.00 | 36 | 943.8 |
| 20260501190026 | 59 | 92 | 2.6 | 4.3 | 0.00 | 0.00 | 0.00 | 35 | 943.8 |
| 20260501185017 | 57 | 78 | 2.6 | 7.0 | 0.00 | 0.00 | 0.00 | 36 | 944.0 |
| 20260501184042 | 58 | 51 | 5.2 | 12.2 | 0.00 | 0.00 | 0.00 | 35 | 944.0 |
| 20260501183034 | 59 | 23 | 4.3 | 10.4 | 0.00 | 0.00 | 0.00 | 36 | 944.0 |
| 20260501182027 | 58 | 110 | 3.5 | 8.7 | 0.00 | 0.00 | 0.00 | 36 | 944.0 |
| 20260501181019 | 56 | 36 | 6.1 | 12.2 | 0.00 | 0.00 | 0.00 | 36 | 944.0 |
| 20260501180044 | 57 | 59 | 3.5 | 7.0 | 0.00 | 0.00 | 0.00 | 37 | 944.1 |
| 20260501175037 | 57 | 195 | 2.6 | 4.3 | 0.00 | 0.00 | 0.00 | 37 | 944.1 |
| 20260501174029 | 58 | 124 | 2.6 | 4.3 | 0.00 | 0.00 | 0.00 | 38 | 944.1 |
| 20260501173020 | 58 | 96 | 2.6 | 6.1 | 0.00 | 0.00 | 0.00 | 36 | 944.2 |
| 20260501172046 | 57 | 85 | 2.6 | 6.1 | 0.00 | 0.00 | 0.00 | 37 | 944.3 |
| 20260501171037 | 56 | 38 | 4.3 | 7.0 | 0.00 | 0.00 | 0.00 | 37 | 944.3 |
| 20260501170030 | 56 | 86 | 4.3 | 9.6 | 0.00 | 0.00 | 0.00 | 38 | 944.2 |
| 20260501165022 | 56 | 330 | 4.3 | 8.7 | 0.00 | 0.00 | 0.00 | 37 | 944.2 |
| 20260501164047 | 55 | 60 | 4.3 | 8.7 | 0.00 | 0.00 | 0.00 | 37 | 944.2 |
| 20260501163038 | 56 | 23 | 3.5 | 7.0 | 0.00 | 0.00 | 0.00 | 38 | 944.3 |
| 20260501162032 | 54 | 220 | 2.6 | 6.1 | 0.00 | 0.00 | 0.00 | 39 | 944.2 |
| 20260501161024 | 54 | 58 | 4.3 | 13.0 | 0.00 | 0.00 | 0.00 | 38 | 944.2 |
| 20260501160017 | 54 | 60 | 4.3 | 8.7 | 0.00 | 0.00 | 0.00 | 38 | 944.2 |
| 20260501155040 | 53 | 73 | 3.5 | 8.7 | 0.00 | 0.00 | 0.00 | 38 | 944.1 |
| 20260501154034 | 52 | 240 | 3.5 | 6.1 | 0.00 | 0.00 | 0.00 | 44 | 944.2 |
| 20260501153025 | 51 | 244 | 2.6 | 4.3 | 0.00 | 0.00 | 0.00 | 45 | 944.2 |
| 20260501152018 | 50 | 241 | 3.5 | 6.1 | 0.00 | 0.00 | 0.00 | 48 | 944.2 |